Location: Cueva de Ratón
(10.1013°N, 67.6606°W)
Time: 13:25:42
(UTC+00:00)

Daily predictions for brighter satellites

Satellite Brightness Start Highest point End
(mag) Time Altitude Azimuth Time Altitude Azimuth Time Altitude Azimuth
Cosmos 2056 Rocket 3.8 22:20:20 10° S 22:25:23 48° ESE 22:30:30 10° NNE
Cosmos 1544 4.2 22:22:58 10° NNW 22:26:02 42° W 22:29:06 10° SSW
JB-3 4.2 22:23:37 10° NNE 22:27:22 66° E 22:31:06 10° S
SKYMED 2 3.8 22:23:13 10° N 22:27:31 76° WNW 22:31:51 10° SSW
Cosmos 1812 Rocket 4.2 22:26:35 10° SSW 22:30:50 60° W 22:35:04 10° N
TRACE 4.5 22:34:02 10° NNE 22:37:32 71° E 22:41:04 10° S
Maqsat-H 4.1 22:38:46 10° SW 22:41:38 15° SSW 22:43:52 10° SSE
Intelsat 5-2 Rocket 3.6 22:41:08 10° W 22:43:21 33° SSW 22:46:27 10° SE
SL-4 R/B 1.5 22:45:07 10° SSW 22:48:26 64° SE 22:51:07 14° NE
Cosmos 1371 Rocket 4.1 22:44:11 10° SSW 22:49:21 84° WNW 22:54:33 10° N
SL-16 R/B 2.3 22:43:48 10° NNW 22:49:27 86° WSW 22:55:06 10° SSE
ADEOS 4.4 22:45:04 10° SE 22:49:28 28° ENE 22:53:52 10° NNE
GPS 2-17 Rocket1 3.2 22:45:00 10° WNW 22:49:44 65° NNE 22:54:04 12° E
Hubble Space Telescope 2.9 22:50:08 10° N 22:51:09 11° NNE 22:52:10 10° NNE
Cosmos 1602 4.0 22:48:28 10° NNW 22:52:09 66° W 22:55:52 10° S
Cosmos 1666 4.0 22:51:28 10° NNW 22:54:47 40° W 22:58:07 10° SSW
BLOCK DM-SL R/B 4.1 22:52:05 10° WSW 22:56:04 32° S 23:00:26 10° ESE
Cosmos 1515 3.5 22:58:28 10° S 23:01:59 61° E 23:05:29 10° NNE
ARIANE 44LP R/B 3.3 22:56:14 10° WSW 23:01:59 38° S 23:03:44 16° ESE
Cosmos 1943 4.0 22:58:43 10° NNE 23:03:22 26° ENE 23:08:01 10° SE
GPS 2-14 Rocket1 3.4 23:00:34 10° W 23:03:54 35° NNW 23:05:38 22° NE
Cosmos 44 3.8 22:59:42 10° N 23:04:19 35° ENE 23:08:40 10° SE
ARIANE 44L R/B 2.6 23:03:18 10° WSW 23:05:26 48° S 23:09:11 15° ESE
Cosmos 2084 Rocket 3.3 23:03:06 10° NNW 23:06:57 77° WSW 23:10:57 10° SSE
CZ-4B R/B 3.7 23:06:29 10° SE 23:10:22 32° ENE 23:13:13 16° NNE
Radarsat Rocket 3.9 23:05:07 10° SSE 23:11:13 72° ENE 23:16:59 10° N
Meteor 1-29 4.0 23:13:39 10° SSE 23:14:46 21° SE 23:14:46 21° SE
Meteor 2-6 Rocket 4.4 23:11:10 10° S 23:16:47 52° E 23:21:39 14° NNE
Meteor 1-25 Rocket 4.3 23:18:58 10° N 23:24:32 79° W 23:30:05 10° S
H-2A ROCKET BODY 3.6 23:26:09 10° SW 23:27:39 14° SSW 23:29:54 10° SSE
Cosmos 2221 4.0 23:24:27 10° SSW 23:28:24 37° W 23:32:19 10° NNW
Delta 7925 Rocket 4.5 23:27:18 10° W 23:31:29 31° NNW 23:33:00 26° NNE
Cosmos 2266 Rocket 4.0 23:28:08 10° SSE 23:34:11 53° E 23:36:47 32° NE
Cosmos 1553 Rocket 4.2 23:32:19 30° NE 23:34:41 43° E 23:40:25 10° SSE
YAOGAN 1 2.4 23:31:11 10° SSE 23:35:27 68° ENE 23:37:08 35° N
NOSS 3-4 (A) 4.4 23:28:21 10° NNW 23:36:22 71° WSW 23:44:59 10° SSE
NOSS 3-4 (C) 4.4 23:28:29 10° NNW 23:36:24 71° WSW 23:44:56 10° SSE
Cosmos 1140 Rocket 3.3 23:36:36 10° NNW 23:41:44 88° WSW 23:46:50 10° SSE
Cosmos 1378 3.3 23:40:21 10° S 23:43:16 59° SW 23:43:16 59° SW
Meteor 1-10 Rocket 4.2 23:43:48 10° S 23:49:30 62° E 23:50:08 58° ENE
Stardust Del rocket 4.2 23:42:19 10° WNW 23:49:26 49° N 23:49:26 49° N
Cosmos 1110 Rocket 3.8 23:48:15 10° SSW 23:53:27 88° ESE 23:54:05 69° NNE
Cosmos 1766 Rocket 4.4 23:55:16 39° S 23:55:16 39° S 23:58:01 10° S
